カタログに戻る

STARLINK-37611

運用中通信SSO
NORAD 69034·PAYLOAD·🇺🇸 United States

打ち上げ May 6, 2026 から Vandenberg Space Force Base

Loading…

次のパス (今後24時間)

TLE

最新Source: CelesTrak SupGP

元期: Sep 14, 2026, 22:42 UTC

1 69034C 26101K   26257.94631944  .00088838  00000+0  27587-2 0  2576
2 69034  97.2850 111.4771 0001763  91.8510 339.9205 15.33382252    14

AllMySatでSTARLINK-37611をリアルタイム追跡

Download on the App Store